Renton, WA

7:56 AM PST on February 10, 2016 (GMT -0800)
Renton Municipal

Weather History for KRNT - April, 2014

Change the Weather History Date:

Thursday, April 10, 2014

  Actual Average Record
Temperature  
Mean Temperature 50 °F -  
Max Temperature 57 °F 56 °F 75 °F (2004)
Min Temperature 44 °F 41 °F 37 °F (2005)
Degree Days  
Heating Degree Days 14    
Moisture  
Dew Point 39 °F    
Average Humidity 67    
Maximum Humidity 83    
Minimum Humidity 45    
Precipitation  
Precipitation 0.00 in - - ()
Sea Level Pressure  
Sea Level Pressure 30.25 in    
Wind  
Wind Speed 6 mph (NNW)    
Max Wind Speed 12 mph    
Max Gust Speed -    
Visibility 10 miles    
Events      
Averages and records for this station are not official NWS values.
T = Trace of Precipitation, MM = Missing Value Source: NWS Daily Summary

Daily Weather History Graph

Daily Weather History Graph

Search for Another Location

Airport or City:

Trip Planner

Search our weather history database for the weather conditions in past years. The results will help you decide how hot, cold, wet, or windy it might be!

Date:

Astronomy

Apr. 10, 2014 Rise Set
Actual Time 6:29 AM PDT 7:51 PM PDT
Civil Twilight 5:57 AM PDT 8:23 PM PDT
Nautical Twilight 5:19 AM PDT 9:02 PM PDT
Astronomical Twilight 4:38 AM PDT 9:43 PM PDT
Moon 3:23 PM PDT 4:13 AM PDT
Length of Visible Light 14h 25m
Length of Day
13h 21m
Waxing Gibbous, 80% of the Moon is Illuminated
Apr 10
Waxing Gibbous
Apr 15
Full
Apr 22
Last Quarter
Apr 28
New
May 6
First Quarter

Hourly Weather History & Observations

Time (PDT) Temp. Windchill Dew Point Humidity Pressure Visibility Wind Dir Wind Speed Gust Speed Precip Events Conditions
12:53 AM 46.9 °F - 42.1 °F 83% 30.27 in 10.0 mi NNW 6.9 mph - N/A   Clear
1:53 AM 46.9 °F - 39.9 °F 77% 30.27 in 10.0 mi North 5.8 mph - N/A   Partly Cloudy
2:53 AM 46.9 °F - 39.9 °F 77% 30.27 in 10.0 mi North 4.6 mph - N/A   Mostly Cloudy
3:53 AM 46.0 °F 44.8 °F 39.0 °F 76% 30.28 in 10.0 mi North 3.5 mph - N/A   Mostly Cloudy
4:53 AM 46.0 °F 44.8 °F 37.9 °F 73% 30.26 in 10.0 mi North 3.5 mph - N/A   Overcast
5:53 AM 45.0 °F 42.6 °F 39.0 °F 80% 30.26 in 10.0 mi Variable 4.6 mph - N/A   Scattered Clouds
6:53 AM 44.6 °F 43.1 °F 39.2 °F 81% 30.25 in 10.0 mi North 3.5 mph - N/A   Mostly Cloudy
7:53 AM 46.0 °F - 39.0 °F 76% 30.29 in 10.0 mi Calm Calm - N/A   Clear
8:53 AM 48.0 °F - 39.0 °F 71% 30.29 in 10.0 mi Calm Calm - N/A   Clear
9:37 AM 50.0 °F - 39.9 °F 68% 30.28 in 10.0 mi NNW 9.2 mph - N/A   Mostly Cloudy
9:51 AM 48.2 °F - 39.2 °F 71% 30.28 in 10.0 mi NNW 10.4 mph - N/A   Mostly Cloudy
9:53 AM 48.9 °F - 39.9 °F 71% 30.30 in 10.0 mi NNW 10.4 mph - N/A   Mostly Cloudy
10:53 AM 51.1 °F - 39.9 °F 66% 30.31 in 10.0 mi NNW 8.1 mph - N/A   Clear
11:53 AM 53.1 °F - 39.9 °F 61% 30.29 in 10.0 mi NNW 9.2 mph - N/A   Clear
12:53 PM 54.0 °F - 39.9 °F 59% 30.27 in 10.0 mi NW 8.1 mph - N/A   Clear
1:53 PM 55.9 °F - 39.0 °F 53% 30.27 in 10.0 mi NW 10.4 mph - N/A   Clear
2:53 PM 55.9 °F - 37.0 °F 49% 30.25 in 10.0 mi NW 9.2 mph - N/A   Clear
3:53 PM 57.0 °F - 36.0 °F 45% 30.23 in 10.0 mi WNW 11.5 mph - N/A   Clear
4:53 PM 57.0 °F - 37.0 °F 47% 30.22 in 10.0 mi NW 10.4 mph - N/A   Clear
5:53 PM 55.9 °F - 39.0 °F 53% 30.20 in 10.0 mi NW 10.4 mph - N/A   Clear
6:53 PM 55.0 °F - 41.0 °F 59% 30.19 in 10.0 mi NNW 8.1 mph - N/A   Clear
7:53 PM 53.1 °F - 39.0 °F 59% 30.18 in 10.0 mi North 6.9 mph - N/A   Clear
8:53 PM 50.0 °F - 43.0 °F 77% 30.19 in 10.0 mi NNW 4.6 mph - N/A   Clear
9:53 PM 50.0 °F - 39.0 °F 66% 30.18 in 10.0 mi Variable 3.5 mph - N/A   Clear
10:53 PM 48.9 °F - 41.0 °F 74% 30.19 in 10.0 mi NNW 3.5 mph - N/A   Clear
11:53 PM 48.9 °F - 39.9 °F 71% 30.19 in 10.0 mi Variable 4.6 mph - N/A   Overcast